When you browse on this site, cookies collect data to enhance your experience and personalize the content and advertising you see.
Visit our Privacy Policy to learn more. By continuing to use the site, you agree to this use of cookies and data.
  • în România
  • Lista ţărilor
  • Pe 7 zile
  • Temperatura apei
  • Meteo pe hartă
  • Widget-uri
  • user-avatar
    Intrare

    Meteo pe oră la Epe

    Astăzi, 5 Iunie, Vineri

    Timp Temperatura Precipitaţii Vânt Presiune Umiditate
    00:00 +27°C° 0 mm 1 m/s 758 mmHg 92%
    01:00 +27°C° 0 mm 1 m/s 758 mmHg 92%
    02:00 +27°C° 0 mm 1 m/s 758 mmHg 92%
    03:00 +27°C° 0 mm 1 m/s 758 mmHg 92%
    04:00 +27°C° 0 mm 1 m/s 758 mmHg 92%
    05:00 +27°C° 0 mm 1 m/s 758 mmHg 92%
    06:00 +27°C° 0 mm 1 m/s 759 mmHg 92%
    07:00 +29°C° 0 mm 1 m/s 759 mmHg 83%
    08:00 +31°C° 0 mm 2 m/s 759 mmHg 74%
    09:00 +32°C° 0 mm 2 m/s 759 mmHg 66%
    10:00 +32°C° 0 mm 2 m/s 759 mmHg 65%
    11:00 +34°C° 0 mm 3 m/s 759 mmHg 64%
    12:00 +34°C° 0 mm 3 m/s 758 mmHg 63%
    13:00 +34°C° 0 mm 3 m/s 758 mmHg 63%
    14:00 +34°C° 0 mm 3 m/s 757 mmHg 62%
    15:00 +34°C° 0 mm 4 m/s 756 mmHg 62%
    16:00 +33°C° 0 mm 4 m/s 757 mmHg 68%
    17:00 +30°C° 0 mm 3 m/s 757 mmHg 74%
    18:00 +29°C° 0 mm 3 m/s 758 mmHg 80%
    19:00 +29°C° 0 mm 3 m/s 758 mmHg 83%
    20:00 +28°C° 0 mm 3 m/s 759 mmHg 85%
    21:00 +28°C° 0 mm 3 m/s 759 mmHg 88%
    22:00 +28°C° 0 mm 2 m/s 759 mmHg 89%
    23:00 +27°C° 0 mm 2 m/s 759 mmHg 90%

    Mâine, 6 Iunie, Sâmbătă

    Timp Temperatura Precipitaţii Vânt Presiune Umiditate
    00:00 +27°C° 0 mm 1 m/s 759 mmHg 92%
    01:00 +27°C° 0 mm 1 m/s 759 mmHg 92%
    02:00 +27°C° 0 mm 1 m/s 759 mmHg 93%
    03:00 +25°C° 0 mm 0 m/s 758 mmHg 93%
    04:00 +25°C° 0 mm 0 m/s 759 mmHg 92%
    05:00 +25°C° 0 mm 0 m/s 759 mmHg 91%
    06:00 +27°C° 0 mm 1 m/s 759 mmHg 90%
    07:00 +29°C° 0 mm 1 m/s 760 mmHg 81%
    08:00 +30°C° 0 mm 2 m/s 760 mmHg 73%
    09:00 +32°C° 0 mm 2 m/s 760 mmHg 64%
    10:00 +34°C° 0.1 mm 3 m/s 760 mmHg 63%
    11:00 +34°C° 0.1 mm 3 m/s 759 mmHg 63%
    12:00 +34°C° 0.1 mm 3 m/s 759 mmHg 63%
    13:00 +34°C° 0 mm 3 m/s 758 mmHg 63%
    14:00 +34°C° 0 mm 4 m/s 758 mmHg 63%
    15:00 +34°C° 0 mm 4 m/s 757 mmHg 62%
    16:00 +33°C° 0 mm 3 m/s 757 mmHg 68%
    17:00 +30°C° 0 mm 3 m/s 757 mmHg 74%
    18:00 +29°C° 0 mm 3 m/s 757 mmHg 79%
    19:00 +29°C° 0 mm 3 m/s 758 mmHg 81%
    20:00 +28°C° 0 mm 2 m/s 758 mmHg 84%
    21:00 +28°C° 0 mm 2 m/s 759 mmHg 86%
    22:00 +28°C° 0 mm 2 m/s 759 mmHg 87%
    23:00 +27°C° 0 mm 2 m/s 759 mmHg 89%

    Poimâine, 7 Iunie, Duminică

    Timp Temperatura Precipitaţii Vânt Presiune Umiditate
    00:00 +27°C° 0 mm 2 m/s 759 mmHg 90%
    01:00 +27°C° 0 mm 2 m/s 758 mmHg 91%
    02:00 +27°C° 0 mm 2 m/s 758 mmHg 91%
    03:00 +27°C° 0 mm 2 m/s 758 mmHg 92%
    04:00 +27°C° 0.3 mm 1 m/s 758 mmHg 92%
    05:00 +27°C° 0.3 mm 1 m/s 758 mmHg 92%
    06:00 +27°C° 0.3 mm 1 m/s 759 mmHg 92%
    07:00 +29°C° 0.2 mm 2 m/s 759 mmHg 84%
    08:00 +30°C° 0.2 mm 2 m/s 759 mmHg 75%
    09:00 +32°C° 0.2 mm 2 m/s 760 mmHg 66%
    10:00 +33°C° 0.1 mm 3 m/s 759 mmHg 65%
    11:00 +33°C° 0.1 mm 3 m/s 759 mmHg 63%
    12:00 +34°C° 0.1 mm 4 m/s 758 mmHg 61%
    13:00 +34°C° 0.4 mm 4 m/s 758 mmHg 62%
    14:00 +33°C° 0.4 mm 4 m/s 757 mmHg 64%
    15:00 +33°C° 0.4 mm 5 m/s 757 mmHg 65%
    16:00 +32°C° 0 mm 4 m/s 757 mmHg 70%
    17:00 +30°C° 0 mm 4 m/s 757 mmHg 75%
    18:00 +29°C° 0 mm 3 m/s 758 mmHg 80%
    19:00 +28°C° 0.1 mm 3 m/s 758 mmHg 82%
    20:00 +28°C° 0.1 mm 3 m/s 758 mmHg 83%
    21:00 +28°C° 0.1 mm 3 m/s 759 mmHg 85%
    22:00 +27°C° 0.1 mm 2 m/s 759 mmHg 86%
    23:00 +27°C° 0.1 mm 2 m/s 759 mmHg 88%

    8 Iunie, Luni

    Timp Temperatura Precipitaţii Vânt Presiune Umiditate
    00:00 +27°C° 0.1 mm 2 m/s 758 mmHg 89%
    01:00 +27°C° 0 mm 2 m/s 758 mmHg 90%
    02:00 +27°C° 0 mm 2 m/s 758 mmHg 90%
    03:00 +27°C° 0 mm 2 m/s 757 mmHg 91%
    04:00 +27°C° 0 mm 2 m/s 758 mmHg 91%
    05:00 +27°C° 0 mm 2 m/s 758 mmHg 90%
    06:00 +27°C° 0 mm 2 m/s 758 mmHg 90%
    07:00 +28°C° 0 mm 2 m/s 758 mmHg 83%
    08:00 +30°C° 0 mm 3 m/s 758 mmHg 77%
    09:00 +31°C° 0 mm 3 m/s 759 mmHg 70%
    10:00 +31°C° 0 mm 3 m/s 758 mmHg 68%
    11:00 +33°C° 0 mm 3 m/s 758 mmHg 66%
    12:00 +34°C° 0 mm 3 m/s 758 mmHg 63%
    13:00 +33°C° 1 mm 4 m/s 757 mmHg 67%
    14:00 +32°C° 1 mm 4 m/s 757 mmHg 70%
    15:00 +32°C° 1 mm 4 m/s 757 mmHg 73%
    16:00 +30°C° 0.6 mm 4 m/s 757 mmHg 78%
    17:00 +29°C° 0.6 mm 3 m/s 757 mmHg 82%
    18:00 +28°C° 0.6 mm 3 m/s 757 mmHg 87%
    19:00 +27°C° 0 mm 3 m/s 757 mmHg 88%
    20:00 +27°C° 0 mm 2 m/s 758 mmHg 89%
    21:00 +27°C° 0 mm 2 m/s 758 mmHg 90%
    22:00 +27°C° 0 mm 2 m/s 757 mmHg 90%
    23:00 +26°C° 0 mm 1 m/s 757 mmHg 91%

    9 Iunie, Marţi

    Timp Temperatura Precipitaţii Vânt Presiune Umiditate
    00:00 +26°C° 0 mm 1 m/s 757 mmHg 92%
    01:00 +26°C° 0 mm 1 m/s 757 mmHg 92%
    02:00 +24°C° 0 mm 0 m/s 757 mmHg 93%
    03:00 +24°C° 0 mm 0 m/s 757 mmHg 93%
    04:00 +24°C° 0 mm 0 m/s 757 mmHg 92%
    05:00 +24°C° 0 mm 0 m/s 757 mmHg 91%
    06:00 +26°C° 0 mm 1 m/s 758 mmHg 90%
    07:00 +28°C° 0 mm 1 m/s 758 mmHg 83%
    08:00 +30°C° 0 mm 1 m/s 759 mmHg 75%
    09:00 +31°C° 0 mm 2 m/s 759 mmHg 67%
    10:00 +32°C° 0 mm 2 m/s 758 mmHg 65%
    11:00 +33°C° 0 mm 3 m/s 758 mmHg 63%
    12:00 +34°C° 0 mm 3 m/s 757 mmHg 61%
    13:00 +34°C° 0 mm 4 m/s 757 mmHg 62%
    14:00 +33°C° 0 mm 4 m/s 756 mmHg 63%
    15:00 +33°C° 0 mm 4 m/s 756 mmHg 64%
    16:00 +31°C° 0.1 mm 3 m/s 756 mmHg 70%
    17:00 +29°C° 0.1 mm 3 m/s 756 mmHg 77%
    18:00 +28°C° 0.1 mm 2 m/s 757 mmHg 83%
    19:00 +28°C° 0 mm 2 m/s 757 mmHg 86%
    20:00 +28°C° 0 mm 2 m/s 757 mmHg 88%
    21:00 +27°C° 0 mm 3 m/s 758 mmHg 90%
    22:00 +27°C° 0 mm 3 m/s 758 mmHg 91%
    23:00 +27°C° 0 mm 3 m/s 757 mmHg 92%

    10 Iunie, Miercuri

    Timp Temperatura Precipitaţii Vânt Presiune Umiditate
    00:00 +27°C° 0 mm 2 m/s 757 mmHg 93%
    01:00 +27°C° 0.3 mm 2 m/s 757 mmHg 94%
    02:00 +27°C° 0.3 mm 2 m/s 757 mmHg 94%
    03:00 +26°C° 0.3 mm 2 m/s 757 mmHg 95%
    04:00 +26°C° 1.6 mm 2 m/s 757 mmHg 94%
    05:00 +26°C° 1.6 mm 2 m/s 757 mmHg 94%
    06:00 +26°C° 1.6 mm 2 m/s 758 mmHg 94%
    07:00 +27°C° 1 mm 2 m/s 758 mmHg 89%
    08:00 +28°C° 1 mm 2 m/s 759 mmHg 84%
    09:00 +30°C° 1 mm 2 m/s 759 mmHg 79%
    10:00 +30°C° 0.9 mm 2 m/s 759 mmHg 79%
    11:00 +30°C° 0.9 mm 3 m/s 758 mmHg 78%
    12:00 +30°C° 0.9 mm 3 m/s 758 mmHg 78%
    13:00 +30°C° 0.1 mm 3 m/s 757 mmHg 76%
    14:00 +30°C° 0.1 mm 3 m/s 757 mmHg 74%
    15:00 +30°C° 0.1 mm 3 m/s 757 mmHg 73%
    16:00 +30°C° 0 mm 3 m/s 757 mmHg 76%
    17:00 +29°C° 0 mm 3 m/s 757 mmHg 80%
    18:00 +28°C° 0 mm 3 m/s 757 mmHg 84%
    19:00 +28°C° 0 mm 3 m/s 757 mmHg 85%
    20:00 +28°C° 0 mm 3 m/s 757 mmHg 87%
    21:00 +27°C° 0 mm 3 m/s 758 mmHg 89%
    22:00 +27°C° 0.1 mm 3 m/s 758 mmHg 89%
    23:00 +27°C° 0.1 mm 3 m/s 758 mmHg 90%
    Arată mai mult